Tiempo cada hora Murfatlar

Hoy, 27 Octubre, Martes

Tiempo Temperatura Precipitaciones Viento Presión Humedad
00:00 +13°C° 0 mm 3 mps 755 mmHg 82%
01:00 +14°C° 0 mm 2 mps 755 mmHg 83%
02:00 +13°C° 0 mm 2 mps 755 mmHg 81%
03:00 +13°C° 0 mm 2 mps 755 mmHg 83%
04:00 +13°C° 0 mm 2 mps 755 mmHg 84%
05:00 +13°C° 0 mm 2 mps 755 mmHg 85%
06:00 +13°C° 0 mm 2 mps 756 mmHg 82%
07:00 +14°C° 0 mm 1 mps 756 mmHg 80%
08:00 +14°C° 0 mm 1 mps 756 mmHg 78%
09:00 +15°C° 0 mm 1 mps 756 mmHg 71%
10:00 +18°C° 0 mm 1 mps 756 mmHg 65%
11:00 +19°C° 0 mm 1 mps 756 mmHg 58%
12:00 +20°C° 0 mm 1 mps 756 mmHg 56%
13:00 +21°C° 0 mm 1 mps 756 mmHg 53%
14:00 +21°C° 0 mm 1 mps 756 mmHg 50%
15:00 +19°C° 0 mm 2 mps 756 mmHg 56%
16:00 +18°C° 0 mm 2 mps 756 mmHg 63%
17:00 +17°C° 0 mm 3 mps 756 mmHg 69%
18:00 +17°C° 0 mm 3 mps 756 mmHg 73%
19:00 +16°C° 0 mm 2 mps 756 mmHg 76%
20:00 +16°C° 0 mm 2 mps 756 mmHg 80%
21:00 +16°C° 0 mm 1 mps 756 mmHg 81%
22:00 +15°C° 0 mm 1 mps 756 mmHg 83%
23:00 +15°C° 0 mm 1 mps 756 mmHg 84%

Mañana, 28 Octubre, Miércoles

Tiempo Temperatura Precipitaciones Viento Presión Humedad
00:00 +15°C° 0 mm 1 mps 756 mmHg 85%
01:00 +15°C° 0 mm 1 mps 756 mmHg 86%
02:00 +14°C° 0 mm 1 mps 756 mmHg 87%
03:00 +14°C° 0 mm 1 mps 756 mmHg 87%
04:00 +14°C° 0 mm 1 mps 756 mmHg 88%
05:00 +14°C° 0 mm 2 mps 756 mmHg 88%
06:00 +14°C° 0 mm 2 mps 756 mmHg 86%
07:00 +14°C° 0 mm 2 mps 756 mmHg 83%
08:00 +15°C° 0 mm 2 mps 757 mmHg 81%
09:00 +16°C° 0 mm 2 mps 757 mmHg 74%
10:00 +18°C° 0 mm 2 mps 757 mmHg 67%
11:00 +19°C° 0 mm 2 mps 757 mmHg 60%
12:00 +20°C° 0 mm 2 mps 757 mmHg 57%
13:00 +20°C° 0 mm 2 mps 756 mmHg 54%
14:00 +21°C° 0 mm 2 mps 756 mmHg 51%
15:00 +20°C° 0 mm 2 mps 756 mmHg 56%
16:00 +19°C° 0 mm 2 mps 756 mmHg 62%
17:00 +18°C° 0 mm 2 mps 756 mmHg 67%
18:00 +17°C° 0 mm 2 mps 756 mmHg 69%
19:00 +18°C° 0 mm 1 mps 757 mmHg 72%
20:00 +16°C° 0 mm 1 mps 757 mmHg 74%
21:00 +16°C° 0 mm 1 mps 757 mmHg 74%
22:00 +16°C° 0 mm 1 mps 757 mmHg 75%
23:00 +15°C° 0 mm 1 mps 756 mmHg 75%

Pasado mañana, 29 Octubre, Jueves

Tiempo Temperatura Precipitaciones Viento Presión Humedad
00:00 +15°C° 0 mm 1 mps 756 mmHg 76%
01:00 +15°C° 0 mm 2 mps 756 mmHg 77%
02:00 +15°C° 0 mm 2 mps 756 mmHg 78%
03:00 +15°C° 0 mm 2 mps 756 mmHg 78%
04:00 +15°C° 0 mm 2 mps 756 mmHg 79%
05:00 +15°C° 0 mm 2 mps 756 mmHg 79%
06:00 +15°C° 0 mm 2 mps 756 mmHg 79%
07:00 +16°C° 0 mm 2 mps 756 mmHg 79%
08:00 +16°C° 0 mm 2 mps 756 mmHg 79%
09:00 +16°C° 0 mm 2 mps 756 mmHg 76%
10:00 +17°C° 0 mm 2 mps 756 mmHg 73%
11:00 +18°C° 0 mm 2 mps 756 mmHg 69%
12:00 +18°C° 0 mm 3 mps 756 mmHg 67%
13:00 +18°C° 0 mm 3 mps 756 mmHg 65%
14:00 +19°C° 0 mm 3 mps 756 mmHg 63%
15:00 +18°C° 0 mm 2 mps 756 mmHg 66%
16:00 +17°C° 0 mm 2 mps 756 mmHg 68%
17:00 +17°C° 0 mm 2 mps 756 mmHg 71%
18:00 +16°C° 0 mm 1 mps 756 mmHg 73%
19:00 +16°C° 0 mm 1 mps 756 mmHg 74%
20:00 +15°C° 0 mm 1 mps 757 mmHg 76%
21:00 +15°C° 0 mm 1 mps 757 mmHg 76%
22:00 +15°C° 0 mm 2 mps 757 mmHg 76%
23:00 +15°C° 0 mm 2 mps 757 mmHg 77%

30 Octubre, Viernes

Tiempo Temperatura Precipitaciones Viento Presión Humedad
00:00 +14°C° 0 mm 2 mps 757 mmHg 78%
01:00 +14°C° 0 mm 2 mps 757 mmHg 79%
02:00 +13°C° 0 mm 3 mps 757 mmHg 80%
03:00 +12°C° 0 mm 3 mps 757 mmHg 81%
04:00 +12°C° 0 mm 3 mps 757 mmHg 82%
05:00 +12°C° 0 mm 3 mps 757 mmHg 84%
06:00 +12°C° 0 mm 4 mps 757 mmHg 82%
07:00 +12°C° 0 mm 4 mps 757 mmHg 80%
08:00 +13°C° 0 mm 5 mps 757 mmHg 78%
09:00 +14°C° 0 mm 5 mps 758 mmHg 74%
10:00 +15°C° 0 mm 5 mps 758 mmHg 70%
11:00 +16°C° 0 mm 6 mps 758 mmHg 65%
12:00 +16°C° 0.2 mm 6 mps 757 mmHg 65%
13:00 +15°C° 0.2 mm 6 mps 757 mmHg 65%
14:00 +15°C° 0.2 mm 6 mps 757 mmHg 65%
15:00 +14°C° 0.2 mm 5 mps 757 mmHg 68%
16:00 +13°C° 0.2 mm 4 mps 757 mmHg 70%
17:00 +14°C° 0.2 mm 2 mps 757 mmHg 73%
18:00 +12°C° 1.6 mm 4 mps 758 mmHg 76%
19:00 +12°C° 1.6 mm 5 mps 758 mmHg 79%
20:00 +10°C° 1.6 mm 6 mps 758 mmHg 82%
21:00 +10°C° 0.9 mm 6 mps 758 mmHg 79%
22:00 +10°C° 0.9 mm 5 mps 759 mmHg 77%
23:00 +9°C° 0.9 mm 5 mps 759 mmHg 74%

31 Octubre, Sábado

Tiempo Temperatura Precipitaciones Viento Presión Humedad
00:00 +9°C° 0 mm 5 mps 759 mmHg 73%
01:00 +8°C° 0 mm 5 mps 759 mmHg 72%
02:00 +8°C° 0 mm 5 mps 759 mmHg 71%
03:00 +7°C° 0 mm 5 mps 759 mmHg 72%
04:00 +7°C° 0 mm 5 mps 759 mmHg 72%
05:00 +6°C° 0 mm 5 mps 759 mmHg 73%
06:00 +7°C° 0 mm 4 mps 759 mmHg 73%
07:00 +7°C° 0 mm 4 mps 759 mmHg 72%
08:00 +7°C° 0 mm 4 mps 759 mmHg 72%
09:00 +8°C° 0 mm 4 mps 759 mmHg 67%
10:00 +11°C° 0 mm 4 mps 759 mmHg 61%
11:00 +12°C° 0 mm 3 mps 759 mmHg 56%
12:00 +12°C° 0.1 mm 3 mps 759 mmHg 58%
13:00 +11°C° 0.1 mm 3 mps 759 mmHg 59%
14:00 +11°C° 0.1 mm 3 mps 758 mmHg 61%
15:00 +11°C° 0.5 mm 3 mps 758 mmHg 66%
16:00 +10°C° 0.5 mm 3 mps 758 mmHg 71%
17:00 +9°C° 0.5 mm 3 mps 758 mmHg 76%
18:00 +9°C° 0.1 mm 3 mps 758 mmHg 76%
19:00 +9°C° 0.1 mm 3 mps 758 mmHg 75%
20:00 +9°C° 0.1 mm 3 mps 759 mmHg 75%
21:00 +9°C° 0 mm 3 mps 759 mmHg 75%
22:00 +8°C° 0 mm 4 mps 759 mmHg 75%
23:00 +7°C° 0 mm 4 mps 759 mmHg 74%

1 Noviembre, Domingo

Tiempo Temperatura Precipitaciones Viento Presión Humedad
00:00 +7°C° 0 mm 5 mps 759 mmHg 75%
01:00 +7°C° 0 mm 5 mps 759 mmHg 75%
02:00 +6°C° 0 mm 5 mps 759 mmHg 76%
03:00 +7°C° 0 mm 5 mps 759 mmHg 78%
04:00 +7°C° 0 mm 6 mps 759 mmHg 81%
05:00 +7°C° 0 mm 6 mps 759 mmHg 84%
06:00 +7°C° 0.1 mm 6 mps 759 mmHg 83%
07:00 +7°C° 0.1 mm 6 mps 759 mmHg 83%
08:00 +8°C° 0.1 mm 6 mps 759 mmHg 82%
09:00 +8°C° 0.1 mm 6 mps 760 mmHg 80%
10:00 +9°C° 0.1 mm 7 mps 760 mmHg 77%
11:00 +10°C° 0.1 mm 7 mps 760 mmHg 74%
12:00 +10°C° 0 mm 7 mps 760 mmHg 73%
13:00 +10°C° 0 mm 7 mps 760 mmHg 73%
14:00 +10°C° 0 mm 6 mps 760 mmHg 73%
15:00 +10°C° 0 mm 6 mps 760 mmHg 74%
16:00 +10°C° 0 mm 6 mps 760 mmHg 75%
17:00 +9°C° 0 mm 6 mps 760 mmHg 76%
18:00 +9°C° 0 mm 6 mps 760 mmHg 79%
19:00 +9°C° 0 mm 6 mps 760 mmHg 81%
20:00 +8°C° 0 mm 6 mps 760 mmHg 84%
21:00 +8°C° 0 mm 6 mps 761 mmHg 83%
22:00 +8°C° 0 mm 6 mps 761 mmHg 83%
23:00 +9°C° 0 mm 6 mps 761 mmHg 82%
Mostrar más

Necesitamos Su Consentimiento

Meteoprog y nuestros Proveedores de Servicios pueden almacenar y acceder a sus datos personales como cookies, identificadores de dispositivo u otras tecnologías similares de su dispositivo y procesar dichos datos para personalizar contenido y anuncios, además de ofrecer funciones de redes sociales y analizar el tráfico.

  • Almacenar y/o acceder a información en su dispositivo

    Se puede almacenar o acceder a cookies, identificadores de dispositivo u otra información de su dispositivo para los fines anteriormente indicados.

  • Anuncios y contenido personalizados, medición de anuncios y contenido, percepciones del público, y desarrollo de productos

    Los anuncios y el contenido pueden personalizarse en base a su perfil. Se pueden añadir más datos para personalizar mejor los anuncios y contenidos. Se puede medir el rendimiento de los anuncios y contenidos. Se puede obtener la percepción sobre el público que ha visto los anuncios y contenidos. Dichos datos pueden usarse para desarrollar o mejorar la experiencia del usuario, sistemas y software.

Al hacer clic en ‘Estoy De Acuerdo’ usted permitirá el uso de las cookies, identificadores de dispositivo, balizas web u otras tecnologías similares indicadas. Su configuración puede cambiarse desde el navegador de su dispositivo.

Para ciertos fines, los intereses legítimos pueden ser considerados por encima del consentimiento. Puede leer más sobre ello en nuestra Política de Privacidad y Cookies.